Weather Roundup
Issued by NWS Corpus Christi, TX

Home | Current Version | Previous Version | Text Only | Print | Product List | Glossary On
Versions: 1 2 3 4 5 6 7 8 9 10 11 12 13 14 15 16 17 18 19 20 21 22 23 24 25 26 27 28 29 30 31 32 33 34 35 36 37 38 39 40 41 42 43 44 45 46 47 48 49 50
000
ASUS44 KCRP 301410
HRRCRP

SOUTH TEXAS REGIONAL WEATHER ROUNDUP
NATIONAL WEATHER SERVICE CORPUS CHRISTI TX
900 AM CDT THU OCT 30 2014


TXZ229>244-301500-
...CORPUS CHRISTI AREA OBSERVATIONS...

CITY           SKY/WX    TMP DP  RH WIND       PRES   REMARKS
CORPUS CHRISTI CLOUDY    73  71  93 NE9       30.09R FOG
NAS CORPUS CHR MOSUNNY   77  75  93 NE10      30.08R
ROCKPORT       MOSUNNY   73  70  90 NE10      30.09R FOG
KINGSVILLE NAS MOSUNNY   72  70  93 NE6       30.10R
ALICE          FOG       68  67  96 NE7       30.10R VSB 3/4
FALFURRIAS     SUNNY     66  65  97 CALM      30.09R
$$

...VICTORIA AREA OBSERVATIONS...

CITY           SKY/WX    TMP DP  RH WIND       PRES   REMARKS
VICTORIA       MOSUNNY   69  63  81 NE6       30.12R
BEEVILLE       FOG       67  67 100 NE5       30.11R VSB 1/4
PLEASANTON     MOSUNNY   67  64  89 CALM      30.12S FOG
SAN ANTONIO    CLOUDY    67  62  84 NE5       30.14R
$$

...LAREDO AREA OBSERVATIONS...

CITY           SKY/WX    TMP DP  RH WIND       PRES   REMARKS
LAREDO         SUNNY     68  64  86 NE5       30.13R
COTULLA        SUNNY     68  64  87 E7        30.12R FOG
DEL RIO        SUNNY     66  63  90 E9        30.11R FOG
MCALLEN        SUNNY     75  69  81 CALM      30.09R
HEBBRONVILLE   CLOUDY    63  62  97 CALM      30.12R VSB 1/4
$$

...OTHER TEXAS OBSERVATIONS...

CITY           SKY/WX    TMP DP  RH WIND       PRES   REMARKS
BROWNSVILLE    SUNNY     74  70  87 CALM      30.08R
HOUSTON        MOSUNNY   61  50  67 NE7       30.14R
COL. STATION   MOSUNNY   60  50  69 E7        30.15R
AUSTIN         MOSUNNY   62  60  93 NE5       30.14R
WACO           PTSUNNY   57  51  80 E3        30.16R
FORT WORTH     MOSUNNY   59  50  72 CALM      30.15R
WICHITA FALLS  SUNNY     56  45  66 S5        30.14R
LUBBOCK        CLEAR     50  46  86 NW6       30.14R
EL PASO        CLEAR     54  38  54 N9        30.21R
$$

...MARINE OBSERVATIONS...

STATION/POSITION TIME  SKY/WX   TEMP    WIND        PRES    VSBY  WAVE   SWELL
                                AIR SEA DIR/SP/G                  HT/PER HT/PER
                 (UTC)          (F)     (DEG/KT/KT) (MB)    (MI)  (FT/S) (FT/S)
PORT ARANSAS     1400            75 78   20/ 13/ 14 1019.3R
BUOY 90 E PORT A 1400            77 79   40/  6/  8 1018.9R         2/ 5   2/ 5
BUOY 45 SE BAFFI 1400            78 80  330/  4/  6 1018.3R         1/ 5   2/ 5
BUOY 200 E PT IS 1400            78 80   10/  6/  8 1017.8R         2/ 7   2/ 7
BUOY 15 E GALVES 1400            71 77   60/ 12/ 16 1019.0R         3/ 5
$$



USA.gov is the U.S. government's official web portal to all federal, state and local government web resources and services.